Weather observations for the past three days for
Sarasota / Bradenton, Sarasota-Bradenton International Airport
Imperial (Metric)
Date Time (edt) Wind (mph) Vis. (mi.) Weather Sky Cond. Temperature (ºF) Relative Humidity Wind Chill (°F) Heat Index (°F) Pressure Precipitation (in)
Air Dwpt 6 hour altimeter (in) sea level (mb) 1 hr 3 hr 6 hr
Max. Min.
15 22:00 S 7 10.00 A Few Clouds FEW090 82.4 71.6 70% 87 29.97 0.0
15 19:55 S 7 10.00 Fair CLR 84.2 69.8 62% 88 29.97 0.0
15 18:53 SE 12 10.00 Mostly Cloudy SCT070 BKN090 84.2 73.4 70% 91 29.96 0.0
15 17:55 SW 14 10.00 Mostly Cloudy SCT060 BKN090 84.2 73.4 70% 91 29.96 0.0
15 16:53 S 16 G 25 5.00 Light Rain FEW022 BKN065 OVC095 82.4 75.2 79% 89 29.96 0.0
15 15:53 SW 13 10.00 Overcast FEW023 SCT060 OVC070 86 75.2 70% 95 29.96 0.0
15 14:53 SW 7 10.00 Partly Cloudy SCT085 SCT120 84.2 75.2 74% 92 29.96 0.0
15 13:53 S 14 G 21 10.00 Fair CLR 84.2 73.4 70% 91 29.97 0.0
15 12:53 S 14 G 23 10.00 Thunderstorm in Vicinity SCT100 84.2 73.4 70% 91 29.97 0.0
15 11:53 S 17 G 26 10.00 Thunderstorm in Vicinity FEW025 SCT032 BKN090 80.6 71.6 74% 85 29.99 0.0
15 10:53 SW 14 G 20 10.00 Partly Cloudy FEW085 SCT110 87.8 73.4 62% 96 29.97 0.0
15 09:53 S 9 10.00 Partly Cloudy SCT020 84.2 75.2 74% 92 29.95 0.0
15 08:53 SE 7 10.00 Fair CLR 82.4 75.2 79% 89 29.94 0.0
14 23:55 SE 3 10.00 A Few Clouds FEW022 82.4 75.2 79% 89 29.91 0.0
14 22:53 S 6 10.00 A Few Clouds FEW022 82.4 75.2 79% 89 29.91 0.0
14 20:53 S 6 10.00 Mostly Cloudy BKN021 82.4 75.2 79% 89 29.89 0.0
14 17:53 S 14 10.00 A Few Clouds FEW120 80.6 75.2 84% 86 29.87 0.0
14 15:53 SW 9 6.00 Thunderstorm Light Rain BKN026 OVC036 84.9 75.9 75% 94 29.87 1011.4 0.02
14 14:53 SW 12 10.00 Thunderstorm FEW100 88 75.9 68% 99 29.87 1011.5
14 13:53 SW 12 10.00 Partly Cloudy SCT055 88 77 89.1 78.1 70% 100 29.88 1011.8
14 12:53 SW 9 10.00 Partly Cloudy SCT039 SCT049 88 75.9 68% 99 29.89 1012.2
14 11:53 Calm 10.00 Partly Cloudy SCT027 86 75 70% 95 29.88 1011.6
14 10:53 Vrbl 3 10.00 A Few Clouds FEW018 84 75 74% 92 29.89 1012.0
14 09:53 E 7 10.00 Mostly Cloudy BKN011 82 75.9 82% 89 29.89 1012.1
14 08:53 SE 6 10.00 Overcast OVC005 79 75.9 90% 83 29.9 1012.6
14 07:53 E 5 10.00 Fair CLR 78.1 75 78.1 73.9 90% 81 29.89 1012.2
14 06:53 NE 3 10.00 Fair CLR 75 73 94% 73 29.88 1011.8
14 05:53 Calm 10.00 Overcast OVC004 75 73 94% 73 29.86 1011.2
14 04:53 NE 3 10.00 A Few Clouds FEW007 73.9 71.1 91% 29.85 1010.6
14 02:53 Calm 10.00 Fair CLR 75 72 90% 74 29.83 1010.0
14 01:53 Calm 10.00 Fair CLR 75.9 72 82.9 75.9 88% 76 29.85 1010.7
14 00:53 E 3 10.00 Fair CLR 75.9 71.1 85% 76 29.88 1011.7
13 23:53 NE 3 10.00 Fair CLR 75.9 71.1 85% 76 29.89 1012.0
13 21:53 Calm 10.00 A Few Clouds FEW060 77 71.1 82% 79 29.86 1010.9
13 20:53 Calm 10.00 Fair CLR 82 75.9 82% 89 29.87 1011.4
13 19:53 W 8 10.00 Fair CLR 84 75 86 79 74% 92 29.85 1010.8 0.29
13 18:53 SW 10 10.00 Fair CLR 84.9 75 72% 93 29.84 1010.4
13 17:53 S 12 10.00 Fair CLR 84.9 73.9 70% 92 29.85 1010.6
13 16:53 S 13 10.00 Fair CLR 84.9 75 72% 93 29.86 1011.0 0.29
13 15:53 S 15 10.00 Mostly Cloudy BKN037 BKN044 82.9 75.9 79% 91 29.87 1011.5
13 14:53 S 13 10.00 Mostly Cloudy FEW027 SCT049 BKN070 81 75 82% 87 29.88 1011.6 0.29
13 13:53 S 15 G 22 10.00 Light Rain FEW023 BKN033 BKN042 86 77 88 78.1 75% 97 29.87 1011.5
13 12:53 W 10 10.00 Mostly Cloudy BKN018 87.1 78.1 75% 100 29.88 1011.8
13 11:53 SW 9 10.00 Mostly Cloudy SCT025 BKN032 BKN041 86 78.1 77% 98 29.88 1011.8
13 10:53 W 8 10.00 Fair CLR 86 77 75% 97 29.87 1011.3
13 09:53 Calm 10.00 Fair CLR 84.9 75 72% 93 29.87 1011.4
13 08:53 SW 5 10.00 A Few Clouds FEW090 82 73.9 77% 88 29.88 1011.8
13 07:53 N 3 10.00 Partly Cloudy SCT045 78.1 75 80.1 75.9 90% 81 29.87 1011.5 0.75
13 06:53 NW 7 10.00 Light Rain FEW040 BKN110 77 75 94% 78 29.86 1011.1 0.1
13 05:53 W 6 2.00 Light Rain Fog/Mist BKN021 OVC033 77 75.9 96% 78 29.85 1010.7 0.16
13 04:53 N 6 5.00 Light Rain Fog/Mist BKN025 OVC035 78.1 75.9 93% 81 29.83 1010.0 0.4 0.49
13 03:53 SE 10 3.00 Heavy Rain Fog/Mist SCT038 OVC045 79 77 94% 83 29.84 1010.3 0.09
13 02:53 SE 7 10.00 Light Rain BKN039 OVC047 80.1 75.9 87% 85 29.85 1010.7
13 01:53 SE 5 10.00 Fair CLR 80.1 77 84.9 80.1 90% 86 29.86 1011.0
13 00:53 SE 6 10.00 Fair CLR 80.1 77 90% 86 29.87 1011.5
12 23:53 S 7 10.00 Light Rain SCT017 SCT026 BKN034 82 77 85% 90 29.88 1011.7
12 22:53 SE 3 10.00 Mostly Cloudy BKN016 82.9 77 82% 92 29.88 1011.6
Date Time (edt) Wind (mph) Vis. (mi.) Weather Sky Cond. Air Dwpt Max. Min. Relative Humidity Wind Chill (°F) Heat Index (°F) altimeter (in) sea level (mb) 1 hr 3 hr 6 hr
6 hour
Temperature (ºF) Pressure Precipitation (in)